G6LTT Weather Reports


time (UTC)temp
C
wind
direction
speed
KPH
gust
KPH
rain 1hr
cm
rain 24hr
cm
rain mn
cm
humidity
%
barometer
mb
20260506094503 11 4 3.2 11.3 0.00 0.00 0.00 61 1041.9
20260506093603 11 13 3.2 9.7 0.00 0.00 0.00 58 1041.6
20260506092703 10 6 3.2 11.3 0.00 0.00 0.00 62 1041.8
20260506091803 12 10 6.4 14.5 0.00 0.00 0.00 59 1041.8
20260506090903 11 1 4.8 12.9 0.00 0.00 0.00 61 1041.5
20260506090003 10 21 3.2 11.3 0.00 0.00 0.00 63 1041.7
20260506085613 9 10 3.2 11.3 0.00 0.00 0.00 67 1041.8
20260506084715 10 355 0.0 9.7 0.00 0.00 0.00 66 1041.5
20260506083812 10 49 3.2 11.3 0.00 0.00 0.00 66 1041.6
20260506082703 10 36 1.6 14.5 0.00 0.00 0.00 65 1041.4
20260506081804 10 11 4.8 14.5 0.00 0.00 0.00 63 1041.4
20260506080903 10 344 3.2 12.9 0.00 0.00 0.00 67 1041.5
20260506072915 9 24 4.8 12.9 0.00 0.00 0.00 69 1041.4
20260506071808 9 37 4.8 22.5 0.00 0.00 0.00 71 1041.5
20260506070903 9 25 3.2 14.5 0.00 0.00 0.00 70 1041.3
20260506062014 8 41 3.2 17.7 0.00 0.00 0.00 76 1041.2
20260506060903 7 38 6.4 17.7 0.00 0.00 0.00 77 1041.2
20260506050903 7 5 0.0 11.3 0.00 0.00 0.00 78 1041.1
20260506044503 7 44 0.0 12.9 0.00 0.00 0.00 78 1041.2
20260506043603 7 39 3.2 11.3 0.00 0.00 0.00 78 1040.9
20260506042703 7 1 1.6 11.3 0.00 0.00 0.00 78 1040.8
20260506041803 7 358 0.0 11.3 0.00 0.00 0.00 78 1041.0
20260506040903 7 2 1.6 6.4 0.00 0.00 0.00 79 1040.8
20260506040003 7 35 1.6 6.4 0.00 0.00 0.00 79 1040.9
20260506035616 7 36 3.2 11.3 0.00 0.00 0.00 79 1040.9
20260506034503 7 39 3.2 12.9 0.00 0.00 0.00 79 1040.9
20260506033603 7 57 1.6 11.3 0.00 0.00 0.00 79 1041.0
20260506032703 7 29 0.0 12.9 0.00 0.00 0.00 79 1041.0
20260506031803 7 60 8.0 12.9 0.00 0.00 0.00 79 1041.1
20260506030903 8 63 3.2 9.7 0.00 0.00 0.00 78 1041.2
20260506030003 8 60 4.8 12.9 0.00 0.00 0.00 78 1041.1
20260506025403 8 33 1.6 9.7 0.00 0.00 0.00 78 1041.1
20260506024503 8 55 1.6 6.4 0.00 0.00 0.00 78 1041.1
20260506023603 8 39 3.2 9.7 0.00 0.00 0.00 78 1041.4
20260506022914 8 36 1.6 9.7 0.00 0.00 0.00 78 1041.3
20260506021803 8 61 3.2 9.7 0.00 0.00 0.00 77 1041.1
20260506020903 8 49 3.2 17.7 0.00 0.00 0.00 77 1041.2
20260506020216 8 45 1.6 14.5 0.00 0.00 0.00 77 1041.2
20260506015403 8 43 3.2 14.5 0.00 0.00 0.00 76 1041.3
20260506014715 8 50 3.2 14.5 0.00 0.00 0.00 76 1041.2
20260506013603 8 46 3.2 11.3 0.00 0.00 0.00 76 1041.3
20260506012708 8 54 3.2 9.7 0.00 0.00 0.00 77 1041.4
20260506011803 9 13 0.0 6.4 0.00 0.00 0.00 79 1041.6
20260506010903 9 40 1.6 6.4 0.00 0.00 0.00 79 1041.5
20260506010003 9 36 3.2 6.4 0.00 0.00 0.00 80 1041.3
20260506005613 9 21 4.8 6.4 0.00 0.00 0.00 80 1041.4
20260506004504 9 55 3.2 9.7 0.00 0.00 0.00 80 1041.5
20260506003603 9 58 0.0 6.4 0.00 0.00 0.00 80 1041.3
20260506002703 9 47 0.0 6.4 0.00 0.00 0.00 79 1041.5
20260506001803 9 53 3.2 6.4 0.00 0.00 0.00 79 1041.6
20260506000903 9 7 0.0 3.2 0.00 0.00 0.00 78 1041.5
20260506000219 9 22 1.6 3.2 0.00 0.00 0.00 77 1041.5
20260505235403 9 68 0.0 9.7 0.00 0.00 0.00 76 1041.6
20260505234503 9 41 3.2 12.9 0.00 0.00 0.00 76 1041.6
20260505233603 10 58 1.6 12.9 0.00 0.00 0.00 75 1041.7
20260505232916 10 52 6.4 9.7 0.00 0.00 0.00 74 1041.4
20260505232013 10 57 3.2 12.9 0.00 0.00 0.00 74 1041.4
20260505230903 10 53 4.8 12.9 0.00 0.00 0.00 73 1041.6
20260505230003 10 46 4.8 14.5 0.00 0.00 0.00 74 1041.7
20260505225403 10 47 0.0 14.5 0.00 0.00 0.00 74 1041.6
20260505224717 10 32 1.6 11.3 0.00 0.00 0.00 74 1041.6
20260505223603 10 56 1.6 11.3 0.00 0.00 0.00 74 1041.5
20260505222703 10 50 4.8 17.7 0.00 0.00 0.00 73 1041.6
20260505221803 10 45 6.4 17.7 0.00 0.00 0.00 72 1041.2
20260505221116 10 51 11.3 17.7 0.00 0.00 0.00 71 1041.5
20260505220003 11 51 3.2 14.5 0.00 0.00 0.00 70 1041.7
20260505215615 11 53 3.2 14.5 0.00 0.00 0.00 70 1041.5
20260505214503 11 64 3.2 12.9 0.00 0.00 0.00 78 1041.2
20260505213814 11 70 1.6 11.3 0.00 0.00 0.00 77 1041.3
20260505212703 11 47 1.6 12.9 0.00 0.00 0.00 76 1041.3
20260505211803 11 58 1.6 12.9 0.00 0.00 0.00 75 1041.3
20260505210903 11 57 6.4 12.9 0.00 0.00 0.00 74 1041.3
20260505210003 11 51 1.6 17.7 0.00 0.00 0.00 73 1041.2
20260505205403 11 55 8.0 17.7 0.00 0.00 0.00 73 1040.9
20260505204503 12 51 1.6 14.5 0.00 0.00 0.00 71 1041.2
20260505203603 12 55 3.2 17.7 0.00 0.00 0.00 69 1041.0
20260505202703 12 48 6.4 17.7 0.00 0.00 0.00 66 1041.0
20260505202020 12 61 0.0 12.9 0.00 0.00 0.00 65 1040.9
20260505200903 12 68 3.2 11.3 0.00 0.00 0.00 68 1040.5
20260505200003 12 35 1.6 11.3 0.00 0.00 0.00 67 1040.7
20260505195403 12 43 1.6 11.3 0.00 0.00 0.00 67 1040.5
20260505194503 12 360 3.2 14.5 0.00 0.00 0.00 66 1040.4
20260505193603 12 43 3.2 12.9 0.00 0.00 0.00 66 1040.1
20260505192703 12 59 6.4 12.9 0.00 0.00 0.00 65 1040.2
20260505191803 13 43 3.2 12.9 0.00 0.00 0.00 65 1040.0
20260505190903 13 60 4.8 14.5 0.00 0.00 0.00 64 1040.1
20260505190008 13 59 3.2 14.5 0.00 0.00 0.00 64 1040.0
20260505185403 13 45 1.6 12.9 0.00 0.00 0.00 64 1039.8
20260505184503 13 25 1.6 11.3 0.00 0.00 0.00 64 1040.0
20260505183822 13 39 4.8 12.9 0.00 0.00 0.00 64 1039.8
20260505182914 13 45 3.2 12.9 0.00 0.00 0.00 64 1039.8
20260505181803 14 12 1.6 6.4 0.00 0.00 0.00 60 1039.7
20260505180903 14 43 0.0 9.7 0.00 0.00 0.00 58 1039.6
20260505180216 14 35 3.2 11.3 0.00 0.00 0.00 57 1039.5
20260505175403 15 27 1.6 11.3 0.00 0.00 0.00 56 1039.9
20260505174503 15 24 1.6 11.3 0.00 0.00 0.00 56 1039.8
20260505173603 15 51 1.6 6.4 0.00 0.00 0.00 55 1039.6
20260505172914 15 46 3.2 6.4 0.00 0.00 0.00 54 1039.6
20260505171803 15 3 0.0 6.4 0.00 0.00 0.00 54 1039.6
20260505170903 15 18 1.6 6.4 0.00 0.00 0.00 54 1039.8
20260505170003 15 41 3.2 6.4 0.00 0.00 0.00 54 1039.7
20260505165403 15 23 1.6 3.2 0.00 0.00 0.00 53 1039.8
20260505164503 15 54 1.6 9.7 0.00 0.00 0.00 52 1039.9
20260505163603 15 25 3.2 6.4 0.00 0.00 0.00 51 1039.9
20260505162703 15 47 1.6 12.9 0.00 0.00 0.00 52 1039.9
20260505161803 15 40 1.6 3.2 0.00 0.00 0.00 51 1039.8
20260505160903 16 47 1.6 6.4 0.00 0.00 0.00 49 1039.7
20260505152703 16 37 0.0 6.4 0.00 0.00 0.00 47 1039.7
20260505151803 16 30 0.0 9.7 0.00 0.00 0.00 46 1039.8
20260505150903 16 55 3.2 11.3 0.00 0.00 0.00 46 1039.9
20260505124503 15 29 3.2 6.4 0.00 0.00 0.00 56 1040.3
20260505123815 15 2 3.2 9.7 0.00 0.00 0.00 57 1040.9
20260505122703 15 57 1.6 9.7 0.00 0.00 0.00 58 1040.4
20260505121803 15 38 3.2 11.3 0.00 0.00 0.00 56 1040.4
20260505120903 15 32 6.4 11.3 0.00 0.00 0.00 55 1040.7
20260505120004 15 23 3.2 9.7 0.00 0.00 0.00 54 1040.4
20260505115616 15 55 3.2 11.3 0.00 0.00 0.00 54 1040.5
20260505114716 16 21 3.2 6.4 0.00 0.00 0.00 56 1040.5
20260505113816 16 8 0.0 11.3 0.00 0.00 0.00 52 1040.5
20260505112703 17 92 3.2 9.7 0.00 0.00 0.00 49 1040.4
20260505111803 16 49 4.8 14.5 0.00 0.00 0.00 52 1040.9
20260505110903 16 45 3.2 12.9 0.00 0.00 0.00 54 1040.5
20260505101808 15 44 3.2 14.5 0.00 0.00 0.00 59 1041.3
20260505100903 15 43 0.0 11.3 0.00 0.00 0.00 59 1041.1
20260505100216 15 56 3.2 11.3 0.00 0.00 0.00 62 1041.3
20260505095403 15 47 1.6 14.5 0.00 0.00 0.00 61 1041.5